Time,TemperatureF,DewpointF,PressureIn,WindDirection,WindDirectionDegrees,WindSpeedMPH,WindSpeedGustMPH,Humidity,HourlyPrecipIn,Conditions,Clouds,dailyrainin,SolarRadiationWatts/m^2,SoftwareType,DateUTC
2013-05-02 00:00:00,50.0,49.5,30.39,West,273,1.0,4.0,98,0.00,,,0.05,0,Wunderground v.1.15,2013-05-02 04:00:00,
2013-05-02 00:05:00,49.9,49.6,30.39,West,273,0.0,4.0,99,0.00,,,0.00,0,Wunderground v.1.15,2013-05-02 04:05:00,
2013-05-02 00:10:00,50.0,49.7,30.40,West,273,0.0,2.0,99,0.00,,,0.00,0,Wunderground v.1.15,2013-05-02 04:10:00,
2013-05-02 00:19:00,49.9,49.6,30.40,West,273,1.0,1.0,99,0.00,,,0.01,0,Wunderground v.1.15,2013-05-02 04:19:00,
2013-05-02 00:25:00,49.9,49.6,30.40,West,275,1.0,3.0,99,0.00,,,0.01,0,Wunderground v.1.15,2013-05-02 04:25:00,
2013-05-02 00:30:00,49.8,49.5,30.40,NW,323,1.0,1.0,99,0.00,,,0.01,0,Wunderground v.1.15,2013-05-02 04:30:00,
2013-05-02 00:35:00,49.8,49.5,30.40,WNW,300,1.0,1.0,99,0.00,,,0.01,0,Wunderground v.1.15,2013-05-02 04:35:00,
2013-05-02 00:45:00,49.7,49.4,30.40,WNW,292,0.0,1.0,99,0.00,,,0.01,0,Wunderground v.1.15,2013-05-02 04:45:00,
2013-05-02 00:50:00,49.7,49.4,30.40,NNE,30,1.0,2.0,99,0.00,,,0.01,0,Wunderground v.1.15,2013-05-02 04:50:00,
2013-05-02 01:00:00,49.6,49.3,30.40,WNW,303,1.0,1.0,99,0.00,,,0.01,0,Wunderground v.1.15,2013-05-02 05:00:00,
2013-05-02 01:10:00,49.5,49.2,30.40,NNW,342,1.0,1.0,99,0.00,,,0.01,0,Wunderground v.1.15,2013-05-02 05:10:00,
2013-05-02 01:15:00,49.4,49.1,30.40,NW,306,1.0,1.0,99,0.00,,,0.01,0,Wunderground v.1.15,2013-05-02 05:15:00,
2013-05-02 01:20:00,49.4,49.1,30.40,NW,306,1.0,1.0,99,0.00,,,0.01,0,Wunderground v.1.15,2013-05-02 05:20:00,
2013-05-02 01:30:00,49.4,49.1,30.39,WSW,255,1.0,1.0,99,0.00,,,0.02,0,Wunderground v.1.15,2013-05-02 05:30:00,
2013-05-02 01:35:00,49.4,49.1,30.39,WSW,255,0.0,1.0,99,0.00,,,0.02,0,Wunderground v.1.15,2013-05-02 05:35:00,
2013-05-02 01:45:00,49.4,49.1,30.39,WSW,249,0.0,0.0,99,0.00,,,0.02,0,Wunderground v.1.15,2013-05-02 05:45:00,
2013-05-02 01:55:00,49.4,49.1,30.38,WSW,249,0.0,2.0,99,0.00,,,0.02,0,Wunderground v.1.15,2013-05-02 05:55:00,
2013-05-02 02:00:00,49.4,49.1,30.38,SSW,203,0.0,3.0,99,0.00,,,0.03,0,Wunderground v.1.15,2013-05-02 06:00:00,
2013-05-02 02:10:00,49.3,49.0,30.38,WSW,237,1.0,1.0,99,0.00,,,0.03,0,Wunderground v.1.15,2013-05-02 06:10:00,
2013-05-02 02:20:00,49.2,48.9,30.38,NNW,347,1.0,2.0,99,0.00,,,0.03,0,Wunderground v.1.15,2013-05-02 06:20:00,
2013-05-02 02:30:00,49.3,49.0,30.37,NW,317,0.0,0.0,99,0.00,,,0.03,0,Wunderground v.1.15,2013-05-02 06:30:00,
2013-05-02 02:35:00,49.2,48.9,30.37,NW,317,0.0,0.0,99,0.00,,,0.03,0,Wunderground v.1.15,2013-05-02 06:35:00,
2013-05-02 02:40:00,49.2,48.9,30.37,NW,317,0.0,1.0,99,0.00,,,0.03,0,Wunderground v.1.15,2013-05-02 06:40:00,
2013-05-02 02:49:00,49.2,48.9,30.37,NNE,23,1.0,1.0,99,0.00,,,0.04,0,Wunderground v.1.15,2013-05-02 06:49:00,
2013-05-02 02:55:00,49.2,48.9,30.36,NNE,22,0.0,1.0,99,0.00,,,0.04,0,Wunderground v.1.15,2013-05-02 06:55:00,
2013-05-02 03:00:00,49.1,48.8,30.36,West,279,1.0,1.0,99,0.00,,,0.04,0,Wunderground v.1.15,2013-05-02 07:00:00,
2013-05-02 03:10:00,49.0,48.7,30.36,WSW,258,1.0,1.0,99,0.00,,,0.04,0,Wunderground v.1.15,2013-05-02 07:10:00,
2013-05-02 03:15:00,49.0,48.7,30.36,NW,306,1.0,1.0,99,0.00,,,0.04,0,Wunderground v.1.15,2013-05-02 07:15:00,
2013-05-02 03:20:00,49.0,48.7,30.36,NNE,19,1.0,1.0,99,0.00,,,0.04,0,Wunderground v.1.15,2013-05-02 07:20:00,
2013-05-02 03:30:00,48.9,48.6,30.35,WSW,250,0.0,4.0,99,0.00,,,0.04,0,Wunderground v.1.15,2013-05-02 07:30:00,
2013-05-02 03:40:00,48.8,48.8,30.35,NW,318,1.0,1.0,100,0.00,,,0.04,0,Wunderground v.1.15,2013-05-02 07:40:00,
2013-05-02 03:45:00,48.7,48.7,30.36,NW,313,1.0,1.0,100,0.00,,,0.04,0,Wunderground v.1.15,2013-05-02 07:45:00,
2013-05-02 03:55:00,48.7,48.7,30.36,WNW,300,0.0,3.0,100,0.00,,,0.04,0,Wunderground v.1.15,2013-05-02 07:55:00,
2013-05-02 04:00:00,48.6,48.3,30.36,South,188,1.0,1.0,99,0.00,,,0.04,0,Wunderground v.1.15,2013-05-02 08:00:00,
2013-05-02 04:10:00,48.5,48.2,30.36,SSW,192,0.0,0.0,99,0.00,,,0.04,0,Wunderground v.1.15,2013-05-02 08:10:00,
2013-05-02 04:15:00,48.4,48.1,30.36,SW,233,0.0,0.0,99,0.00,,,0.04,0,Wunderground v.1.15,2013-05-02 08:15:00,
2013-05-02 04:20:00,48.3,48.0,30.36,SW,233,0.0,0.0,99,0.00,,,0.04,0,Wunderground v.1.15,2013-05-02 08:20:00,
2013-05-02 04:30:00,48.1,47.8,30.36,WSW,254,0.0,0.0,99,0.00,,,0.04,0,Wunderground v.1.15,2013-05-02 08:30:00,
2013-05-02 04:35:00,48.1,47.8,30.36,WSW,257,0.0,0.0,99,0.00,,,0.05,0,Wunderground v.1.15,2013-05-02 08:35:00,
2013-05-02 04:45:00,48.1,47.8,30.36,WSW,250,0.0,1.0,99,0.13,,,0.07,0,Wunderground v.1.15,2013-05-02 08:45:00,
2013-05-02 04:50:00,48.1,47.8,30.36,WNW,300,1.0,1.0,99,0.07,,,0.07,0,Wunderground v.1.15,2013-05-02 08:50:00,
2013-05-02 05:00:00,47.9,47.6,30.36,NNW,335,1.0,1.0,99,0.00,,,0.07,0,Wunderground v.1.15,2013-05-02 09:00:00,
2013-05-02 05:10:00,47.7,47.4,30.36,WNW,301,1.0,1.0,99,0.00,,,0.07,0,Wunderground v.1.15,2013-05-02 09:10:00,
2013-05-02 05:20:00,47.6,47.3,30.35,WSW,248,1.0,1.0,99,0.00,,,0.08,0,Wunderground v.1.15,2013-05-02 09:20:00,
2013-05-02 05:25:00,47.6,47.3,30.36,WSW,244,0.0,2.0,99,0.00,,,0.08,0,Wunderground v.1.15,2013-05-02 09:25:00,
2013-05-02 05:30:00,47.6,47.3,30.36,WSW,244,0.0,0.0,99,0.00,,,0.08,0,Wunderground v.1.15,2013-05-02 09:30:00,
2013-05-02 05:40:00,47.5,47.2,30.35,NW,319,1.0,1.0,99,0.00,,,0.09,0,Wunderground v.1.15,2013-05-02 09:40:00,
2013-05-02 05:45:00,47.5,47.2,30.35,NW,319,0.0,1.0,99,0.19,,,0.11,0,Wunderground v.1.15,2013-05-02 09:45:00,
2013-05-02 05:55:00,47.4,47.1,30.35,SW,215,1.0,3.0,99,0.13,,,0.13,0,Wunderground v.1.15,2013-05-02 09:55:00,
2013-05-02 06:00:00,47.3,47.0,30.35,SSW,209,1.0,1.0,99,0.11,,,0.13,0,Wunderground v.1.15,2013-05-02 10:00:00,
2013-05-02 06:10:00,47.3,47.0,30.36,SW,217,1.0,1.0,99,0.07,,,0.14,0,Wunderground v.1.15,2013-05-02 10:10:00,
2013-05-02 06:15:00,47.2,46.9,30.36,SW,223,0.0,2.0,99,0.07,,,0.15,0,Wunderground v.1.15,2013-05-02 10:15:00,
2013-05-02 06:20:00,47.1,46.8,30.35,NNW,346,1.0,1.0,99,0.07,,,0.15,0,Wunderground v.1.15,2013-05-02 10:20:00,
2013-05-02 06:30:00,47.0,46.7,30.36,NW,322,0.0,0.0,99,0.11,,,0.17,0,Wunderground v.1.15,2013-05-02 10:30:00,
2013-05-02 06:35:00,47.0,46.7,30.36,WSW,240,0.0,2.0,99,0.08,,,0.17,0,Wunderground v.1.15,2013-05-02 10:35:00,
2013-05-02 06:40:00,47.0,46.7,30.36,NW,309,1.0,3.0,99,0.05,,,0.17,0,Wunderground v.1.15,2013-05-02 10:40:00,
2013-05-02 06:50:00,47.0,47.0,30.37,NNW,336,0.0,0.0,100,0.04,,,0.18,0,Wunderground v.1.15,2013-05-02 10:50:00,
2013-05-02 06:55:00,47.0,47.0,30.37,NNW,336,0.0,0.0,100,0.04,,,0.18,0,Wunderground v.1.15,2013-05-02 10:55:00,
2013-05-02 07:00:00,47.1,47.1,30.37,WSW,237,0.0,0.0,100,0.04,,,0.18,0,Wunderground v.1.15,2013-05-02 11:00:00,
2013-05-02 07:10:00,47.1,47.1,30.37,NNW,344,1.0,1.0,100,0.00,,,0.18,0,Wunderground v.1.15,2013-05-02 11:10:00,
2013-05-02 07:20:00,47.3,47.3,30.37,NW,321,1.0,1.0,100,0.00,,,0.18,7,Wunderground v.1.15,2013-05-02 11:20:00,
2013-05-02 07:25:00,47.2,47.2,30.38,NW,310,1.0,1.0,100,0.00,,,0.19,5,Wunderground v.1.15,2013-05-02 11:25:00,
2013-05-02 07:30:00,47.2,47.2,30.38,NW,313,1.0,1.0,100,0.00,,,0.19,7,Wunderground v.1.15,2013-05-02 11:30:00,
2013-05-02 07:40:00,47.2,47.2,30.38,WNW,290,0.0,0.0,100,0.00,,,0.19,11,Wunderground v.1.15,2013-05-02 11:40:00,
2013-05-02 07:50:00,47.3,47.3,30.38,West,275,0.0,0.0,100,0.00,,,0.19,12,Wunderground v.1.15,2013-05-02 11:50:00,
2013-05-02 07:55:00,47.3,47.3,30.39,West,273,0.0,0.0,100,0.00,,,0.19,12,Wunderground v.1.15,2013-05-02 11:55:00,
2013-05-02 08:00:00,47.3,47.3,30.39,West,272,0.0,3.0,100,0.00,,,0.19,14,Wunderground v.1.15,2013-05-02 12:00:00,
2013-05-02 08:10:00,47.4,47.4,30.39,NW,304,1.0,1.0,100,0.00,,,0.19,14,Wunderground v.1.15,2013-05-02 12:10:00,
2013-05-02 08:15:00,47.4,47.4,30.39,WSW,246,0.0,1.0,100,0.00,,,0.19,19,Wunderground v.1.15,2013-05-02 12:15:00,
2013-05-02 08:25:00,47.4,47.4,30.40,SW,221,1.0,1.0,100,0.00,,,0.20,21,Wunderground v.1.15,2013-05-02 12:25:00,
2013-05-02 08:35:00,47.5,47.5,30.40,West,263,1.0,2.0,100,0.00,,,0.20,18,Wunderground v.1.15,2013-05-02 12:35:00,
2013-05-02 08:45:00,47.4,47.4,30.40,WSW,245,0.0,1.0,100,0.00,,,0.20,33,Wunderground v.1.15,2013-05-02 12:45:00,
2013-05-02 08:55:00,47.5,47.5,30.40,NNE,28,0.0,0.0,100,0.00,,,0.20,58,Wunderground v.1.15,2013-05-02 12:55:00,
2013-05-02 09:00:00,47.6,47.6,30.40,North,360,1.0,1.0,100,0.00,,,0.20,42,Wunderground v.1.15,2013-05-02 13:00:00,
2013-05-02 09:10:00,47.6,47.6,30.40,NNW,327,1.0,1.0,100,0.00,,,0.20,28,Wunderground v.1.15,2013-05-02 13:10:00,
2013-05-02 09:20:00,47.6,47.6,30.40,West,271,0.0,1.0,100,0.00,,,0.20,28,Wunderground v.1.15,2013-05-02 13:20:00,
2013-05-02 09:25:00,47.6,47.6,30.41,SSW,210,0.0,4.0,100,0.00,,,0.20,35,Wunderground v.1.15,2013-05-02 13:25:00,
2013-05-02 09:30:00,47.6,47.6,30.41,SSW,197,1.0,1.0,100,0.00,,,0.20,49,Wunderground v.1.15,2013-05-02 13:30:00,
2013-05-02 09:40:00,47.7,47.7,30.41,WSW,246,0.0,0.0,100,0.00,,,0.20,42,Wunderground v.1.15,2013-05-02 13:40:00,
2013-05-02 09:45:00,47.8,47.8,30.41,WSW,238,1.0,1.0,100,0.00,,,0.20,70,Wunderground v.1.15,2013-05-02 13:45:00,
2013-05-02 09:50:00,47.9,47.9,30.41,WNW,283,1.0,1.0,100,0.00,,,0.20,56,Wunderground v.1.15,2013-05-02 13:50:00,
2013-05-02 10:00:00,48.1,48.1,30.41,West,281,0.0,0.0,100,0.00,,,0.20,56,Wunderground v.1.15,2013-05-02 14:00:00,
2013-05-02 10:10:00,48.1,48.1,30.41,West,280,0.0,0.0,100,0.00,,,0.20,69,Wunderground v.1.15,2013-05-02 14:10:00,
2013-05-02 10:15:00,48.3,48.3,30.41,West,280,0.0,0.0,100,0.00,,,0.20,54,Wunderground v.1.15,2013-05-02 14:15:00,
2013-05-02 10:20:00,48.4,48.4,30.41,West,273,0.0,1.0,100,0.00,,,0.20,60,Wunderground v.1.15,2013-05-02 14:20:00,
2013-05-02 10:30:00,48.5,48.5,30.42,West,272,0.0,0.0,100,0.00,,,0.20,95,Wunderground v.1.15,2013-05-02 14:30:00,
2013-05-02 10:35:00,48.6,48.6,30.42,WNW,300,0.0,1.0,100,0.00,,,0.20,111,Wunderground v.1.15,2013-05-02 14:35:00,
2013-05-02 10:45:00,49.1,49.1,30.42,West,280,1.0,1.0,100,0.00,,,0.20,114,Wunderground v.1.15,2013-05-02 14:45:00,
2013-05-02 10:50:00,49.2,49.2,30.42,NW,319,1.0,1.0,100,0.00,,,0.20,158,Wunderground v.1.15,2013-05-02 14:50:00,
2013-05-02 10:55:00,49.2,49.2,30.42,West,265,1.0,1.0,100,0.00,,,0.20,169,Wunderground v.1.15,2013-05-02 14:55:00,
2013-05-02 11:00:00,49.3,49.3,30.42,SW,235,1.0,4.0,100,0.00,,,0.20,118,Wunderground v.1.15,2013-05-02 15:00:00,
2013-05-02 11:10:00,49.6,49.6,30.42,SW,227,1.0,1.0,100,0.00,,,0.20,130,Wunderground v.1.15,2013-05-02 15:10:00,
2013-05-02 11:15:00,49.7,49.7,30.42,WNW,292,1.0,1.0,100,0.00,,,0.20,134,Wunderground v.1.15,2013-05-02 15:15:00,
2013-05-02 11:20:00,49.9,49.9,30.42,WNW,292,0.0,0.0,100,0.00,,,0.20,137,Wunderground v.1.15,2013-05-02 15:20:00,
2013-05-02 11:25:00,50.2,50.2,30.42,WNW,292,0.0,0.0,100,0.00,,,0.20,181,Wunderground v.1.15,2013-05-02 15:25:00,
2013-05-02 11:30:00,50.4,50.4,30.42,WNW,292,0.0,0.0,100,0.00,,,0.20,137,Wunderground v.1.15,2013-05-02 15:30:00,
2013-05-02 11:40:00,50.8,50.8,30.42,WNW,291,0.0,0.0,100,0.00,,,0.20,158,Wunderground v.1.15,2013-05-02 15:40:00,
2013-05-02 11:45:00,51.0,51.0,30.42,WNW,287,0.0,0.0,100,0.00,,,0.20,200,Wunderground v.1.15,2013-05-02 15:45:00,
2013-05-02 11:55:00,50.9,50.9,30.42,SW,217,0.0,0.0,100,0.00,,,0.20,156,Wunderground v.1.15,2013-05-02 15:55:00,
2013-05-02 12:00:00,51.0,51.0,30.42,SW,217,0.0,0.0,100,0.00,,,0.20,116,Wunderground v.1.15,2013-05-02 16:00:00,
2013-05-02 12:05:00,51.1,51.1,30.42,SW,217,0.0,0.0,100,0.00,,,0.20,165,Wunderground v.1.15,2013-05-02 16:05:00,
2013-05-02 12:10:00,51.2,51.2,30.42,SW,217,0.0,0.0,100,0.00,,,0.20,125,Wunderground v.1.15,2013-05-02 16:10:00,
2013-05-02 12:20:00,50.9,50.9,30.42,SW,218,0.0,0.0,100,0.00,,,0.20,218,Wunderground v.1.15,2013-05-02 16:20:00,
2013-05-02 12:25:00,51.2,51.2,30.42,SW,218,0.0,1.0,100,0.00,,,0.20,262,Wunderground v.1.15,2013-05-02 16:25:00,
2013-05-02 12:35:00,51.5,51.5,30.42,NNW,333,1.0,3.0,100,0.00,,,0.20,218,Wunderground v.1.15,2013-05-02 16:35:00,
2013-05-02 12:40:00,51.6,51.6,30.42,NW,310,1.0,1.0,100,0.00,,,0.20,218,Wunderground v.1.15,2013-05-02 16:40:00,
2013-05-02 12:50:00,51.6,51.6,30.42,WSW,250,0.0,0.0,100,0.00,,,0.20,302,Wunderground v.1.15,2013-05-02 16:50:00,
2013-05-02 12:55:00,51.8,51.8,30.41,NW,313,0.0,4.0,100,0.00,,,0.20,274,Wunderground v.1.15,2013-05-02 16:55:00,
2013-05-02 13:00:00,51.8,51.8,30.42,SW,221,1.0,1.0,100,0.00,,,0.20,236,Wunderground v.1.15,2013-05-02 17:00:00,
2013-05-02 13:10:00,52.1,52.1,30.42,SW,218,1.0,2.0,100,0.00,,,0.20,142,Wunderground v.1.15,2013-05-02 17:10:00,
2013-05-02 13:15:00,52.0,52.0,30.42,SW,219,0.0,2.0,100,0.00,,,0.20,148,Wunderground v.1.15,2013-05-02 17:15:00,
2013-05-02 13:20:00,52.0,52.0,30.42,SW,227,0.0,0.0,100,0.00,,,0.20,153,Wunderground v.1.15,2013-05-02 17:20:00,
2013-05-02 13:30:00,51.9,51.9,30.42,SW,214,0.0,0.0,100,0.00,,,0.20,185,Wunderground v.1.15,2013-05-02 17:30:00,
2013-05-02 13:35:00,52.1,52.1,30.42,NW,306,1.0,1.0,100,0.00,,,0.20,128,Wunderground v.1.15,2013-05-02 17:35:00,
2013-05-02 13:45:00,51.9,51.9,30.42,WSW,237,1.0,1.0,100,0.00,,,0.20,128,Wunderground v.1.15,2013-05-02 17:45:00,
2013-05-02 13:50:00,51.9,51.9,30.42,WSW,237,1.0,1.0,100,0.00,,,0.20,134,Wunderground v.1.15,2013-05-02 17:50:00,
2013-05-02 13:55:00,51.9,51.9,30.42,WSW,237,0.0,1.0,100,0.00,,,0.20,77,Wunderground v.1.15,2013-05-02 17:55:00,
2013-05-02 14:00:00,51.9,51.9,30.42,NNE,13,0.0,0.0,100,0.00,,,0.20,84,Wunderground v.1.15,2013-05-02 18:00:00,
2013-05-02 14:10:00,51.7,51.7,30.41,WNW,300,1.0,1.0,100,0.00,,,0.20,202,Wunderground v.1.15,2013-05-02 18:10:00,
2013-05-02 14:15:00,51.9,51.9,30.41,WNW,286,0.0,1.0,100,0.00,,,0.20,179,Wunderground v.1.15,2013-05-02 18:15:00,
2013-05-02 14:25:00,52.4,52.4,30.42,WNW,285,0.0,0.0,100,0.00,,,0.20,123,Wunderground v.1.15,2013-05-02 18:25:00,
2013-05-02 14:30:00,52.3,52.3,30.42,West,277,0.0,0.0,100,0.00,,,0.20,88,Wunderground v.1.15,2013-05-02 18:30:00,
2013-05-02 14:40:00,52.1,52.1,30.42,West,261,0.0,0.0,100,0.00,,,0.20,60,Wunderground v.1.15,2013-05-02 18:40:00,
2013-05-02 14:45:00,52.0,52.0,30.41,West,261,0.0,0.0,100,0.00,,,0.20,65,Wunderground v.1.15,2013-05-02 18:45:00,
2013-05-02 14:50:00,52.0,52.0,30.41,West,261,0.0,0.0,100,0.00,,,0.20,65,Wunderground v.1.15,2013-05-02 18:50:00,
2013-05-02 14:55:00,52.0,52.0,30.41,West,261,0.0,0.0,100,0.00,,,0.20,65,Wunderground v.1.15,2013-05-02 18:55:00,
2013-05-02 15:00:00,51.9,51.9,30.41,WNW,291,1.0,2.0,100,0.00,,,0.20,72,Wunderground v.1.15,2013-05-02 19:00:00,
2013-05-02 15:10:00,51.8,51.8,30.41,SW,221,0.0,2.0,100,0.00,,,0.20,69,Wunderground v.1.15,2013-05-02 19:10:00,
2013-05-02 15:20:00,51.7,51.7,30.41,NW,309,1.0,2.0,100,0.00,,,0.20,40,Wunderground v.1.15,2013-05-02 19:20:00,
2013-05-02 15:25:00,51.6,51.3,30.41,West,276,0.0,2.0,99,0.00,,,0.20,44,Wunderground v.1.15,2013-05-02 19:25:00,
2013-05-02 15:35:00,51.6,51.6,30.40,West,275,0.0,0.0,100,0.00,,,0.20,76,Wunderground v.1.15,2013-05-02 19:35:00,
2013-05-02 15:45:00,51.6,51.6,30.40,WNW,303,0.0,0.0,100,0.00,,,0.20,153,Wunderground v.1.15,2013-05-02 19:45:00,
2013-05-02 15:50:00,51.8,51.8,30.39,WNW,294,1.0,3.0,100,0.00,,,0.20,262,Wunderground v.1.15,2013-05-02 19:50:00,
2013-05-02 15:55:00,52.0,52.0,30.39,West,278,0.0,3.0,100,0.00,,,0.20,200,Wunderground v.1.15,2013-05-02 19:55:00,
2013-05-02 16:00:00,52.3,52.3,30.39,West,276,0.0,0.0,100,0.00,,,0.20,137,Wunderground v.1.15,2013-05-02 20:00:00,
2013-05-02 16:10:00,52.5,52.5,30.39,West,276,0.0,0.0,100,0.00,,,0.20,69,Wunderground v.1.15,2013-05-02 20:10:00,
2013-05-02 16:15:00,52.6,52.6,30.39,West,276,0.0,0.0,100,0.00,,,0.20,76,Wunderground v.1.15,2013-05-02 20:15:00,
2013-05-02 16:25:00,52.5,52.5,30.39,West,278,0.0,0.0,100,0.00,,,0.20,65,Wunderground v.1.15,2013-05-02 20:25:00,
2013-05-02 16:30:00,52.5,52.5,30.39,West,277,0.0,0.0,100,0.00,,,0.20,44,Wunderground v.1.15,2013-05-02 20:30:00,
2013-05-02 16:35:00,52.3,52.3,30.39,SW,236,0.0,0.0,100,0.00,,,0.20,42,Wunderground v.1.15,2013-05-02 20:35:00,
2013-05-02 16:40:00,52.3,52.3,30.39,SW,234,1.0,1.0,100,0.00,,,0.20,62,Wunderground v.1.15,2013-05-02 20:40:00,
2013-05-02 16:50:00,52.3,52.3,30.38,SW,234,0.0,0.0,100,0.00,,,0.20,69,Wunderground v.1.15,2013-05-02 20:50:00,
2013-05-02 16:55:00,52.2,52.2,30.38,SW,234,0.0,0.0,100,0.00,,,0.20,51,Wunderground v.1.15,2013-05-02 20:55:00,
2013-05-02 17:00:00,52.2,52.2,30.38,SW,234,0.0,0.0,100,0.00,,,0.20,44,Wunderground v.1.15,2013-05-02 21:00:00,
2013-05-02 17:10:00,52.3,52.3,30.38,SW,235,0.0,0.0,100,0.00,,,0.20,30,Wunderground v.1.15,2013-05-02 21:10:00,
2013-05-02 17:15:00,52.3,52.3,30.38,SW,234,0.0,0.0,100,0.00,,,0.20,30,Wunderground v.1.15,2013-05-02 21:15:00,
2013-05-02 17:25:00,52.3,52.3,30.38,SW,233,0.0,1.0,100,0.00,,,0.20,33,Wunderground v.1.15,2013-05-02 21:25:00,
2013-05-02 17:30:00,52.2,52.2,30.38,SW,232,0.0,0.0,100,0.00,,,0.20,33,Wunderground v.1.15,2013-05-02 21:30:00,
2013-05-02 17:35:00,52.2,52.2,30.38,SW,232,0.0,0.0,100,0.00,,,0.20,21,Wunderground v.1.15,2013-05-02 21:35:00,
2013-05-02 17:45:00,52.2,52.2,30.38,SW,232,0.0,0.0,100,0.00,,,0.20,25,Wunderground v.1.15,2013-05-02 21:45:00,
2013-05-02 17:50:00,52.1,51.8,30.38,SW,233,0.0,0.0,99,0.00,,,0.20,19,Wunderground v.1.15,2013-05-02 21:50:00,
2013-05-02 18:00:00,51.9,51.6,30.37,SW,233,0.0,0.0,99,0.00,,,0.20,16,Wunderground v.1.15,2013-05-02 22:00:00,
2013-05-02 18:05:00,52.0,52.0,30.37,SW,233,0.0,0.0,100,0.00,,,0.20,14,Wunderground v.1.15,2013-05-02 22:05:00,
2013-05-02 18:15:00,52.1,52.1,30.37,SW,233,0.0,0.0,100,0.00,,,0.20,14,Wunderground v.1.15,2013-05-02 22:15:00,
2013-05-02 18:20:00,52.0,52.0,30.37,SW,233,0.0,0.0,100,0.00,,,0.20,11,Wunderground v.1.15,2013-05-02 22:20:00,
2013-05-02 18:25:00,52.0,51.7,30.37,SW,233,0.0,0.0,99,0.00,,,0.20,11,Wunderground v.1.15,2013-05-02 22:25:00,
2013-05-02 18:30:00,51.9,51.9,30.37,SW,233,0.0,0.0,100,0.00,,,0.20,9,Wunderground v.1.15,2013-05-02 22:30:00,
2013-05-02 18:40:00,51.9,51.9,30.37,SW,233,0.0,0.0,100,0.00,,,0.20,9,Wunderground v.1.15,2013-05-02 22:40:00,
2013-05-02 18:45:00,51.9,51.9,30.37,SW,234,0.0,0.0,100,0.00,,,0.20,9,Wunderground v.1.15,2013-05-02 22:45:00,
2013-05-02 18:50:00,51.8,51.8,30.37,SW,233,0.0,0.0,100,0.00,,,0.20,9,Wunderground v.1.15,2013-05-02 22:50:00,
2013-05-02 19:00:00,51.7,51.7,30.37,SW,236,0.0,0.0,100,0.00,,,0.20,7,Wunderground v.1.15,2013-05-02 23:00:00,
2013-05-02 19:10:00,51.7,51.7,30.37,West,263,0.0,0.0,100,0.00,,,0.20,5,Wunderground v.1.15,2013-05-02 23:10:00,
2013-05-02 19:15:00,51.6,51.6,30.37,West,263,0.0,0.0,100,0.00,,,0.20,5,Wunderground v.1.15,2013-05-02 23:15:00,
2013-05-02 19:25:00,51.5,51.5,30.37,WSW,251,0.0,0.0,100,0.00,,,0.20,5,Wunderground v.1.15,2013-05-02 23:25:00,
2013-05-02 19:30:00,51.5,51.5,30.37,WSW,251,0.0,0.0,100,0.00,,,0.20,5,Wunderground v.1.15,2013-05-02 23:30:00,
2013-05-02 19:35:00,51.5,51.5,30.37,WSW,251,0.0,0.0,100,0.00,,,0.20,0,Wunderground v.1.15,2013-05-02 23:35:00,
2013-05-02 19:40:00,51.5,51.5,30.37,WSW,252,0.0,2.0,100,0.00,,,0.20,0,Wunderground v.1.15,2013-05-02 23:40:00,
2013-05-02 19:50:00,51.4,51.4,30.37,SSW,200,1.0,1.0,100,0.00,,,0.20,0,Wunderground v.1.15,2013-05-02 23:50:00,
2013-05-02 20:00:00,51.3,51.3,30.37,SSW,211,0.0,0.0,100,0.00,,,0.20,0,Wunderground v.1.15,2013-05-03 00:00:00,
2013-05-02 20:10:00,51.3,51.3,30.37,SSW,213,0.0,0.0,100,0.00,,,0.21,0,Wunderground v.1.15,2013-05-03 00:10:00,
2013-05-02 20:20:00,51.2,51.2,30.38,South,176,1.0,1.0,100,0.00,,,0.21,0,Wunderground v.1.15,2013-05-03 00:20:00,
2013-05-02 20:25:00,51.1,51.1,30.38,SSW,200,1.0,1.0,100,0.00,,,0.21,0,Wunderground v.1.15,2013-05-03 00:25:00,
2013-05-02 20:30:00,51.0,51.0,30.38,SSW,200,0.0,0.0,100,0.00,,,0.21,0,Wunderground v.1.15,2013-05-03 00:30:00,
2013-05-02 20:40:00,50.9,50.9,30.38,SSW,200,0.0,0.0,100,0.00,,,0.21,0,Wunderground v.1.15,2013-05-03 00:40:00,
2013-05-02 20:45:00,50.9,50.9,30.38,SSW,200,0.0,0.0,100,0.00,,,0.21,0,Wunderground v.1.15,2013-05-03 00:45:00,
2013-05-02 20:50:00,50.8,50.8,30.38,SSW,200,0.0,0.0,100,0.00,,,0.21,0,Wunderground v.1.15,2013-05-03 00:50:00,
2013-05-02 21:00:00,50.8,50.8,30.38,SSW,200,0.0,0.0,100,0.00,,,0.21,0,Wunderground v.1.15,2013-05-03 01:00:00,
2013-05-02 21:10:00,50.8,50.8,30.39,SSW,201,0.0,0.0,100,0.00,,,0.21,0,Wunderground v.1.15,2013-05-03 01:10:00,
2013-05-02 21:15:00,50.8,50.8,30.39,SSW,201,0.0,0.0,100,0.00,,,0.21,0,Wunderground v.1.15,2013-05-03 01:15:00,
2013-05-02 21:20:00,50.7,50.7,30.39,SSW,201,0.0,0.0,100,0.00,,,0.21,0,Wunderground v.1.15,2013-05-03 01:20:00,
2013-05-02 21:30:00,50.7,50.7,30.39,SSW,202,0.0,1.0,100,0.00,,,0.21,0,Wunderground v.1.15,2013-05-03 01:30:00,
2013-05-02 21:40:00,50.6,50.6,30.39,SW,214,0.0,0.0,100,0.00,,,0.21,0,Wunderground v.1.15,2013-05-03 01:40:00,
2013-05-02 21:50:00,50.5,50.5,30.40,SW,214,0.0,0.0,100,0.00,,,0.21,0,Wunderground v.1.15,2013-05-03 01:50:00,
2013-05-02 21:55:00,50.5,50.5,30.40,WSW,256,0.0,2.0,100,0.00,,,0.21,0,Wunderground v.1.15,2013-05-03 01:55:00,
2013-05-02 22:00:00,50.5,50.5,30.39,WSW,244,1.0,1.0,100,0.00,,,0.21,0,Wunderground v.1.15,2013-05-03 02:00:00,
2013-05-02 22:10:00,50.3,50.3,30.39,ENE,78,1.0,1.0,100,0.00,,,0.21,0,Wunderground v.1.15,2013-05-03 02:10:00,
2013-05-02 22:15:00,50.2,50.2,30.40,ENE,78,1.0,1.0,100,0.00,,,0.21,0,Wunderground v.1.15,2013-05-03 02:15:00,
2013-05-02 22:20:00,50.2,50.2,30.40,NW,315,0.0,2.0,100,0.00,,,0.21,0,Wunderground v.1.15,2013-05-03 02:20:00,
2013-05-02 22:30:00,50.2,50.2,30.40,NW,318,0.0,0.0,100,0.00,,,0.21,0,Wunderground v.1.15,2013-05-03 02:30:00,
2013-05-02 22:35:00,50.1,50.1,30.39,NW,319,0.0,0.0,100,0.00,,,0.21,0,Wunderground v.1.15,2013-05-03 02:35:00,
2013-05-02 22:40:00,50.1,50.1,30.39,West,276,0.0,0.0,100,0.00,,,0.21,0,Wunderground v.1.15,2013-05-03 02:40:00,
2013-05-02 22:50:00,49.9,49.9,30.39,West,273,0.0,1.0,100,0.00,,,0.21,0,Wunderground v.1.15,2013-05-03 02:50:00,
2013-05-02 22:55:00,49.9,49.9,30.39,NW,308,0.0,3.0,100,0.00,,,0.21,0,Wunderground v.1.15,2013-05-03 02:55:00,
2013-05-02 23:00:00,49.8,49.8,30.39,NW,313,1.0,2.0,100,0.00,,,0.21,0,Wunderground v.1.15,2013-05-03 03:00:00,
2013-05-02 23:10:00,49.7,49.7,30.39,West,259,0.0,3.0,100,0.00,,,0.21,0,Wunderground v.1.15,2013-05-03 03:10:00,
2013-05-02 23:15:00,49.6,49.6,30.39,SSW,198,1.0,3.0,100,0.00,,,0.21,0,Wunderground v.1.15,2013-05-03 03:15:00,
2013-05-02 23:20:00,49.6,49.6,30.39,SSW,198,1.0,1.0,100,0.00,,,0.21,0,Wunderground v.1.15,2013-05-03 03:20:00,
2013-05-02 23:30:00,49.6,49.6,30.38,SSW,204,0.0,0.0,100,0.00,,,0.21,0,Wunderground v.1.15,2013-05-03 03:30:00,
2013-05-02 23:40:00,49.6,49.6,30.38,SSW,209,0.0,2.0,100,0.00,,,0.21,0,Wunderground v.1.15,2013-05-03 03:40:00,
2013-05-02 23:45:00,49.5,49.5,30.38,NNW,330,1.0,2.0,100,0.00,,,0.21,0,Wunderground v.1.15,2013-05-03 03:45:00,
2013-05-02 23:50:00,49.5,49.5,30.38,West,277,1.0,1.0,100,0.00,,,0.21,0,Wunderground v.1.15,2013-05-03 03:50:00,